DLH1EN EDDF-LSZH

Flight info

Callsign DLH1EN
Flight time 0h 34m
Altitude 23000
Route ANEKI2L/18 ANEKI Y163 NEKLO Y171 INKAM T725 LAMGO T721 RILAX
Aircraft A20N/M-SDE2E3FGIJ1LORWXYZ/HB1

Departure

Time 2026-05-07 10:00
Airport Frankfurt Main Airport (EDDF)

Arrival

Time 2026-05-07 10:35
Airport Zürich Airport (LSZH)
Time Latitude Longitude Altitude Speed Heading
2026-05-07 09:19 50.04540 8.56224 362 ft 0 kts 34°
2026-05-07 09:47 50.04534 8.56217 363 ft 4 kts 34°
2026-05-07 09:47 50.04511 8.56199 358 ft 2 kts 10°
2026-05-07 09:48 50.04489 8.56199 355 ft 4 kts 314°
2026-05-07 09:48 50.04481 8.56234 357 ft 4 kts 257°
2026-05-07 09:48 50.04490 8.56272 362 ft 4 kts 250°
2026-05-07 09:48 50.04499 8.56312 360 ft 4 kts 250°
2026-05-07 09:49 50.04508 8.56351 360 ft 4 kts 250°
2026-05-07 09:49 50.04515 8.56377 362 ft 1 kts 250°
2026-05-07 09:53 50.04514 8.56377 356 ft 1 kts 250°
2026-05-07 09:53 50.04502 8.56323 360 ft 11 kts 250°
2026-05-07 09:53 50.04466 8.56170 363 ft 19 kts 250°
2026-05-07 09:53 50.04415 8.56022 358 ft 9 kts 195°
2026-05-07 09:54 50.04366 8.56044 361 ft 10 kts 163°
2026-05-07 09:54 50.04283 8.56063 361 ft 15 kts 202°
2026-05-07 09:54 50.04231 8.55905 357 ft 19 kts 250°
2026-05-07 09:54 50.04175 8.55668 358 ft 28 kts 250°
2026-05-07 09:55 50.04096 8.55339 360 ft 33 kts 249°
2026-05-07 09:55 50.04014 8.54996 354 ft 34 kts 249°
2026-05-07 09:55 50.03928 8.54641 353 ft 36 kts 249°
2026-05-07 09:55 50.03833 8.54306 350 ft 33 kts 235°
2026-05-07 09:56 50.03742 8.53978 350 ft 33 kts 250°
2026-05-07 09:56 50.03659 8.53639 338 ft 30 kts 246°
2026-05-07 09:56 50.03583 8.53328 335 ft 31 kts 245°
2026-05-07 09:56 50.03508 8.53015 336 ft 30 kts 250°
2026-05-07 09:57 50.03457 8.52817 335 ft 15 kts 246°
2026-05-07 09:57 50.03433 8.52729 331 ft 1 kts 249°
2026-05-07 09:57 50.03425 8.52693 333 ft 6 kts 250°
2026-05-07 09:57 50.03401 8.52614 332 ft 11 kts 231°
2026-05-07 09:58 50.03349 8.52594 335 ft 0 kts 179°
2026-05-07 09:59 50.03299 8.52594 332 ft 33 kts 179°
2026-05-07 09:59 50.02817 8.52599 335 ft 102 kts 180°
2026-05-07 10:00 50.01920 8.52609 334 ft 153 kts 179°
2026-05-07 10:00 50.00763 8.52644 652 ft 167 kts 179°
2026-05-07 10:00 49.99626 8.52743 1315 ft 166 kts 178°
2026-05-07 10:00 49.98465 8.52864 1974 ft 167 kts 176°
2026-05-07 10:01 49.97274 8.53024 2424 ft 180 kts 176°
2026-05-07 10:01 49.95970 8.53174 2851 ft 196 kts 178°
2026-05-07 10:01 49.94534 8.53311 3332 ft 212 kts 178°
2026-05-07 10:01 49.93028 8.53449 3840 ft 228 kts 178°
2026-05-07 10:02 49.91347 8.53594 4354 ft 253 kts 178°
2026-05-07 10:02 49.89562 8.53616 5153 ft 264 kts 184°
2026-05-07 10:02 49.87673 8.53463 5960 ft 276 kts 184°
2026-05-07 10:02 49.85734 8.53288 6953 ft 280 kts 184°
2026-05-07 10:03 49.83774 8.53108 7967 ft 283 kts 185°
2026-05-07 10:03 49.81802 8.52923 8998 ft 286 kts 185°
2026-05-07 10:03 49.79804 8.52728 10023 ft 288 kts 186°
2026-05-07 10:03 49.77766 8.52530 10665 ft 305 kts 186°
2026-05-07 10:04 49.75570 8.52312 11030 ft 328 kts 186°
2026-05-07 10:04 49.73225 8.52078 11582 ft 342 kts 185°
2026-05-07 10:04 49.70835 8.51844 12469 ft 346 kts 185°
2026-05-07 10:04 49.68413 8.51608 13328 ft 351 kts 185°
2026-05-07 10:05 49.65954 8.51368 14135 ft 356 kts 185°
2026-05-07 10:05 49.63471 8.51126 14912 ft 360 kts 185°
2026-05-07 10:05 49.60953 8.50877 15684 ft 364 kts 185°
2026-05-07 10:05 49.58412 8.50628 16445 ft 368 kts 185°
2026-05-07 10:06 49.55841 8.50378 17185 ft 373 kts 185°
2026-05-07 10:06 49.53241 8.50126 17914 ft 377 kts 185°
2026-05-07 10:06 49.50603 8.49871 18618 ft 381 kts 185°
2026-05-07 10:06 49.47951 8.49615 19279 ft 384 kts 185°
2026-05-07 10:07 49.45273 8.49356 19920 ft 388 kts 185°
2026-05-07 10:07 49.42561 8.49187 20562 ft 393 kts 182°
2026-05-07 10:07 49.39816 8.49235 21206 ft 396 kts 181°
2026-05-07 10:07 49.37034 8.49339 21827 ft 401 kts 181°
2026-05-07 10:08 49.34237 8.49433 22436 ft 405 kts 181°
2026-05-07 10:08 49.31410 8.49504 22895 ft 409 kts 181°
2026-05-07 10:08 49.28550 8.49558 23012 ft 409 kts 182°
2026-05-07 10:08 49.25708 8.49602 23011 ft 409 kts 182°
2026-05-07 10:09 49.22864 8.49641 23005 ft 409 kts 182°
2026-05-07 10:09 49.20021 8.49679 23009 ft 409 kts 182°
2026-05-07 10:09 49.17187 8.49716 23018 ft 409 kts 182°
2026-05-07 10:09 49.14346 8.49755 23015 ft 408 kts 182°
2026-05-07 10:10 49.11490 8.49794 23012 ft 408 kts 181°
2026-05-07 10:10 49.08650 8.49833 23012 ft 409 kts 181°
2026-05-07 10:10 49.05807 8.49872 23014 ft 408 kts 181°
2026-05-07 10:10 49.02970 8.49911 23011 ft 408 kts 181°
2026-05-07 10:11 49.00129 8.49950 23013 ft 408 kts 181°
2026-05-07 10:11 48.97289 8.49989 23006 ft 408 kts 181°
2026-05-07 10:11 48.94452 8.50027 23018 ft 408 kts 181°
2026-05-07 10:11 48.91613 8.50065 23018 ft 408 kts 181°
2026-05-07 10:12 48.88779 8.50103 23023 ft 408 kts 181°
2026-05-07 10:12 48.85940 8.50141 23028 ft 408 kts 181°
2026-05-07 10:12 48.83103 8.50179 23026 ft 407 kts 181°
2026-05-07 10:12 48.80273 8.50217 23016 ft 407 kts 181°
2026-05-07 10:13 48.77440 8.50254 23030 ft 408 kts 181°
2026-05-07 10:13 48.74601 8.50292 23026 ft 407 kts 181°
2026-05-07 10:13 48.71767 8.50329 23031 ft 407 kts 181°
2026-05-07 10:13 48.68938 8.50367 23020 ft 407 kts 181°
2026-05-07 10:14 48.66103 8.50405 23027 ft 408 kts 181°
2026-05-07 10:14 48.63272 8.50442 22921 ft 408 kts 181°
2026-05-07 10:14 48.60426 8.50480 22488 ft 409 kts 181°
2026-05-07 10:14 48.57567 8.50517 21720 ft 412 kts 181°
2026-05-07 10:15 48.54741 8.50556 21007 ft 411 kts 181°
2026-05-07 10:15 48.51876 8.50594 20493 ft 404 kts 181°
2026-05-07 10:15 48.49117 8.50629 19951 ft 399 kts 181°
2026-05-07 10:15 48.46362 8.50666 19409 ft 394 kts 181°
2026-05-07 10:16 48.43629 8.50704 18869 ft 389 kts 181°
2026-05-07 10:16 48.40936 8.50741 18331 ft 385 kts 181°
2026-05-07 10:16 48.38275 8.50780 17761 ft 380 kts 181°
2026-05-07 10:16 48.35649 8.50812 17232 ft 374 kts 181°
2026-05-07 10:17 48.33066 8.50845 16718 ft 369 kts 181°
2026-05-07 10:17 48.30521 8.50879 16204 ft 364 kts 181°
2026-05-07 10:17 48.27996 8.50916 15695 ft 360 kts 181°
2026-05-07 10:17 48.25507 8.50956 15194 ft 356 kts 181°
2026-05-07 10:18 48.23046 8.50987 14707 ft 353 kts 181°
2026-05-07 10:18 48.20599 8.51016 14215 ft 349 kts 181°
2026-05-07 10:18 48.18182 8.51045 13711 ft 346 kts 181°
2026-05-07 10:18 48.15781 8.51075 13214 ft 341 kts 181°
2026-05-07 10:19 48.13423 8.51105 12738 ft 337 kts 181°
2026-05-07 10:19 48.11092 8.51135 12270 ft 333 kts 181°
2026-05-07 10:19 48.08794 8.51166 11809 ft 329 kts 181°
2026-05-07 10:19 48.06525 8.51195 11352 ft 325 kts 181°
2026-05-07 10:20 48.04273 8.51224 10894 ft 322 kts 181°
2026-05-07 10:20 48.02031 8.51253 10447 ft 319 kts 181°
2026-05-07 10:20 47.99859 8.51282 10298 ft 307 kts 181°
2026-05-07 10:20 47.97764 8.51312 10179 ft 294 kts 181°
2026-05-07 10:21 47.95745 8.51339 9877 ft 288 kts 181°
2026-05-07 10:21 47.93785 8.51193 9669 ft 278 kts 189°
2026-05-07 10:21 47.91883 8.50633 9518 ft 282 kts 193°
2026-05-07 10:21 47.89942 8.50029 9172 ft 287 kts 193°
2026-05-07 10:22 47.87986 8.49434 8895 ft 284 kts 193°
2026-05-07 10:22 47.86060 8.48853 8524 ft 281 kts 193°
2026-05-07 10:22 47.84146 8.48277 8116 ft 280 kts 193°
2026-05-07 10:22 47.82247 8.47703 7701 ft 279 kts 193°
2026-05-07 10:23 47.80353 8.47135 7336 ft 276 kts 193°
2026-05-07 10:23 47.78486 8.46569 7073 ft 270 kts 193°
2026-05-07 10:23 47.76685 8.46028 6994 ft 268 kts 193°
2026-05-07 10:23 47.74839 8.45462 6939 ft 274 kts 193°
2026-05-07 10:24 47.73009 8.44912 6853 ft 263 kts 193°
2026-05-07 10:24 47.71259 8.44385 6774 ft 250 kts 193°
2026-05-07 10:24 47.69623 8.43810 6648 ft 235 kts 202°
2026-05-07 10:24 47.68249 8.42603 6350 ft 228 kts 224°
2026-05-07 10:25 47.67170 8.40897 5988 ft 226 kts 229°
2026-05-07 10:25 47.66107 8.39176 5643 ft 226 kts 229°
2026-05-07 10:25 47.65043 8.37472 5316 ft 225 kts 229°
2026-05-07 10:25 47.63921 8.35880 4969 ft 226 kts 216°
2026-05-07 10:26 47.62481 8.34952 4574 ft 230 kts 188°
2026-05-07 10:26 47.60910 8.35281 4212 ft 233 kts 156°
2026-05-07 10:26 47.59707 8.36818 4020 ft 227 kts 122°
2026-05-07 10:26 47.59300 8.39030 4001 ft 231 kts 87°
2026-05-07 10:27 47.59773 8.41287 3997 ft 232 kts 53°
2026-05-07 10:27 47.60966 8.42805 3995 ft 227 kts 20°
2026-05-07 10:27 47.62487 8.43113 3994 ft 222 kts 346°
2026-05-07 10:27 47.63929 8.42366 3988 ft 219 kts 334°
2026-05-07 10:28 47.65333 8.41486 3993 ft 219 kts 334°
2026-05-07 10:28 47.66588 8.40286 4000 ft 215 kts 311°
2026-05-07 10:28 47.67556 8.38575 3986 ft 213 kts 296°
2026-05-07 10:28 47.67849 8.36548 3992 ft 196 kts 261°
2026-05-07 10:29 47.67346 8.34750 3986 ft 188 kts 232°
2026-05-07 10:29 47.66335 8.33580 3993 ft 186 kts 205°
2026-05-07 10:29 47.65060 8.33285 3990 ft 191 kts 176°
2026-05-07 10:30 47.62649 8.34991 3991 ft 194 kts 151°
2026-05-07 10:30 47.61485 8.35998 3993 ft 194 kts 151°
2026-05-07 10:30 47.60362 8.37122 3993 ft 196 kts 144°
2026-05-07 10:30 47.59323 8.38408 3991 ft 191 kts 140°
2026-05-07 10:31 47.58360 8.39706 3999 ft 185 kts 139°
2026-05-07 10:31 47.57425 8.40987 3990 ft 178 kts 139°
2026-05-07 10:31 47.56528 8.42214 3803 ft 175 kts 139°
2026-05-07 10:31 47.55633 8.43442 3574 ft 175 kts 139°
2026-05-07 10:32 47.54761 8.44635 3347 ft 163 kts 139°
2026-05-07 10:32 47.53982 8.45704 3133 ft 144 kts 140°
2026-05-07 10:32 47.53242 8.46719 2955 ft 148 kts 139°
2026-05-07 10:32 47.52738 8.47420 2791 ft 145 kts 139°
2026-05-07 10:33 47.52023 8.48412 2556 ft 143 kts 140°
2026-05-07 10:33 47.51294 8.49414 2321 ft 142 kts 140°
2026-05-07 10:33 47.50564 8.50407 2041 ft 144 kts 139°
2026-05-07 10:33 47.49829 8.51394 1841 ft 141 kts 138°
2026-05-07 10:34 47.49105 8.52393 1685 ft 144 kts 137°
2026-05-07 10:34 47.48365 8.53389 1501 ft 143 kts 137°
2026-05-07 10:34 47.47657 8.54364 1407 ft 129 kts 137°
2026-05-07 10:34 47.47192 8.54996 1409 ft 70 kts 137°
2026-05-07 10:35 47.46868 8.55439 1407 ft 49 kts 136°
2026-05-07 10:35 47.46650 8.55656 1409 ft 37 kts 160°
2026-05-07 10:35 47.46439 8.55731 1398 ft 27 kts 166°
2026-05-07 10:35 47.46359 8.55794 1401 ft 11 kts 141°
2026-05-07 10:36 47.46291 8.55880 1401 ft 15 kts 136°
2026-05-07 10:36 47.46209 8.55993 1397 ft 17 kts 146°
2026-05-07 10:36 47.46088 8.55991 1397 ft 19 kts 186°
2026-05-07 10:36 47.45948 8.55963 1399 ft 21 kts 194°
2026-05-07 10:37 47.45801 8.55888 1407 ft 23 kts 197°
2026-05-07 10:37 47.45663 8.55855 1398 ft 16 kts 208°
2026-05-07 10:37 47.45649 8.55732 1404 ft 14 kts 273°
2026-05-07 10:37 47.45662 8.55543 1406 ft 22 kts 276°
2026-05-07 10:38 47.45674 8.55346 1397 ft 18 kts 275°
2026-05-07 10:38 47.45638 8.55212 1397 ft 15 kts 188°
2026-05-07 10:38 47.45540 8.55273 1399 ft 17 kts 154°
2026-05-07 10:38 47.45425 8.55352 1403 ft 20 kts 157°
2026-05-07 10:39 47.45302 8.55436 1397 ft 15 kts 151°
2026-05-07 10:39 47.45273 8.55575 1402 ft 16 kts 90°
2026-05-07 10:39 47.45264 8.55746 1397 ft 16 kts 96°
2026-05-07 10:39 47.45257 8.55840 1405 ft 6 kts 96°
2026-05-07 10:40 47.45250 8.55920 1399 ft 8 kts 100°
2026-05-07 10:40 47.45206 8.55944 1401 ft 9 kts 185°
2026-05-07 10:40 47.45176 8.55939 1400 ft 2 kts 186°
2026-05-07 10:40 47.45173 8.55939 1399 ft 0 kts 186°